Location: Arcueil
(48.7999°N, 2.3326°E)
Time: 07:12:39
(UTC+00:00)

Cosmos 1709 Rocket - Visible Passes

Search period start: 24 September 2023 00:00
Search period end: 04 October 2023 00:00
Orbit: 948 x 1000 km, 82.9° (Epoch: 23 September)

Date Brightness Start Highest point End Pass type
(mag) Time Alt. Az. Time Alt. Az. Time Alt. Az.
24 Sep 6.6 04:22:38 10° SE 04:27:32 24° E 04:32:26 10° NNE visible
24 Sep 7.5 18:46:00 10° NW 18:47:58 12° WNW 18:49:56 10° W visible
25 Sep 5.7 04:46:28 10° SSE 04:52:17 40° E 04:58:09 10° NNE visible
26 Sep 7.2 03:31:05 10° E 03:33:08 12° ENE 03:35:11 10° NE visible
26 Sep 4.6 05:10:56 10° S 05:17:13 66° E 05:23:33 10° NNE visible
27 Sep 6.7 03:53:11 10° SE 03:57:41 21° E 04:02:10 10° NE visible
27 Sep 7.2 18:15:13 10° NW 18:18:10 14° WNW 18:21:06 10° WSW visible
28 Sep 5.9 04:16:47 10° SSE 04:22:24 34° E 04:28:02 10° NNE visible
29 Sep 4.8 04:41:06 10° SSE 04:47:17 57° E 04:53:31 10° NNE visible
30 Sep 6.8 03:23:52 10° ESE 03:27:52 18° ENE 03:31:51 10° NE visible
30 Sep 4.1 05:05:57 10° S 05:12:20 88° W 05:18:45 10° N visible
01 Oct 6.0 03:47:11 10° SE 03:52:32 29° E 03:57:54 10° NNE visible
02 Oct 5.1 04:11:18 10° SSE 04:17:22 49° E 04:23:27 10° NNE visible
03 Oct 6.8 02:54:41 10° ESE 02:58:03 15° ENE 03:01:24 10° NE visible
03 Oct 4.2 04:36:00 10° S 04:42:23 81° E 04:48:45 10° N visible
